Location: Erba
(45.8000°N, 9.2500°E)
Time: 16:07:49
(UTC+02:00)

ISS - Visible Passes

Search period start: 22 October 2019 00:00
Search period end: 31 October 2019 23:00
Orbit: 411 x 421 km, 51.6° (Epoch: 22 October)

Date Brightness Start Highest point End Pass type
(mag) Time Alt. Az. Time Alt. Az. Time Alt. Az.
24 Oct -1.1 06:48:41 10° S 06:51:10 19° SE 06:53:39 10° E visible
25 Oct -0.7 06:01:27 10° SSE 06:02:47 12° SE 06:04:06 10° ESE visible
26 Oct -2.8 06:47:13 10° SW 06:50:26 46° SE 06:53:41 10° ENE visible
27 Oct -2.0 05:00:46 23° S 05:01:56 28° SE 05:04:53 10° E visible
28 Oct -0.8 04:14:38 15° ESE 04:14:38 15° ESE 04:15:50 10° E visible
28 Oct -3.8 05:47:33 19° WSW 05:49:51 79° NNW 05:53:14 10° ENE visible
29 Oct -3.6 05:01:15 68° SE 05:01:15 68° SE 05:04:35 10° ENE visible
30 Oct -0.8 04:14:50 18° E 04:14:50 18° E 04:15:51 10° ENE visible
30 Oct -3.2 05:47:45 24° WNW 05:49:23 43° NNW 05:52:37 10° NE visible
31 Oct -3.1 05:01:14 48° NNE 05:01:14 48° NNE 05:03:58 10° ENE visible
